Okean 1-7 - Orbit

View from above orbital plane
View from above orbital plane
View from above satellite
View from above satellite

Ground track
Ground track

The orbit data is extracted from the following two-line orbital elements,

1 23317U 94066A   13137.46486544  .00001344  00000-0  15656-3 0  2202
2 23317 082.5401 078.5473 0020031 331.4115 128.8703 14.84430620  4382
Epoch (UTC): 17 May 2013 11:09:24
Eccentricity: 0.0020031
inclination: 82.5401°
perigee height: 601 km
apogee height: 629 km
right ascension of ascending node: 78.5473°
argument of perigee: 331.4115°
revolutions per day: 14.84430620
mean anomaly at epoch: 128.8703°
orbit number at epoch: 438

The dashed part of the orbit path shows where the satellite is in the earth's shadow,  

Developed and maintained by Chris Peat, Heavens-Above GmbH. Please read the updated FAQ before sending e-mail. Imprint. DLR